This is the latest recevied weather packets stored in our database for station/object W1CAT. If no packets are shown the sender has not sent any weather packets the latest 10 day(s).
| Time | Temp. | Humidity | Pressure | Rain* | Wind** | Luminosity | Snow |
|---|---|---|---|---|---|---|---|
| 1788561600 | 21.67° C | 63% | - | 3.05 mm | - | - | - |
| 1788561299 | 23.89° C | 51% | - | 0 mm | - | - | - |
| 1788560995 | 25° C | 35% | - | 0 mm | - | - | - |
| 1788560690 | 25.56° C | 33% | - | 0 mm | - | - | - |
| 1788560390 | 26.11° C | 30% | - | 0 mm | - | - | - |
| 1788560084 | 26.67° C | 31% | - | 0 mm | - | - | - |
| 1788559780 | 26.67° C | 31% | - | 0 mm | - | - | - |
| 1788559479 | 27.22° C | 30% | - | 0 mm | - | - | - |
| 1788559175 | 26.67° C | 28% | - | 0 mm | - | - | - |
| 1788558870 | 27.22° C | 27% | - | 0 mm | - | - | - |
| 1788558560 | 27.22° C | 28% | - | 0 mm | - | - | - |
| 1788558256 | 27.78° C | 27% | - | 0 mm | - | - | - |
| 1788557954 | 28.33° C | 27% | - | 0 mm | - | - | - |
| 1788557649 | 29.44° C | 26% | - | 0 mm | - | - | - |
| 1788557345 | 28.89° C | 26% | - | 0 mm | - | - | - |
| 1788557039 | 28.33° C | 26% | - | 0 mm | - | - | - |
| 1788556734 | 28.89° C | 26% | - | 0 mm | - | - | - |
| 1788556429 | 30° C | 25% | - | 0 mm | - | - | - |
| 1788556124 | 30° C | 25% | - | 0 mm | - | - | - |
| 1788555823 | 28.89° C | 25% | - | 0 mm | - | - | - |
| 1788555520 | 30.56° C | 24% | - | 0 mm | - | - | - |
| 1788555215 | 30.56° C | 24% | - | 0 mm | - | - | - |
| 1788554912 | 28.33° C | 26% | - | 0 mm | - | - | - |
| 1788554607 | 30° C | 25% | - | 0 mm | - | - | - |
| 1788554304 | 31.67° C | 23% | - | 0 mm | - | - | - |
* Rain latest hour (hover to see other rain measurements)
** Current wind speed in m/s (hover to see current wind gust speed)